TimeEST,TemperatureF,Dew PointF,Humidity,Sea Level PressureIn,VisibilityMPH,Wind Direction,Wind SpeedMPH,Gust SpeedMPH,PrecipitationIn,Events,Conditions,WindDirDegrees,DateUTC
12:15 AM,55.4,51.8,88,29.91,8.0,SSW,4.6,-,N/A,,Overcast,200,2012-12-05 05:15:00
12:35 AM,55.4,51.8,88,29.90,9.0,South,10.4,-,N/A,,Overcast,190,2012-12-05 05:35:00
12:55 AM,55.4,51.8,88,29.89,10.0,South,4.6,-,N/A,,Overcast,170,2012-12-05 05:55:00
1:15 AM,55.4,51.8,88,29.88,10.0,South,8.1,-,N/A,,Overcast,170,2012-12-05 06:15:00
1:35 AM,55.4,51.8,88,29.87,10.0,South,8.1,-,N/A,,Overcast,170,2012-12-05 06:35:00
1:55 AM,55.4,51.8,88,29.87,8.0,Calm,Calm,-,N/A,,Mostly Cloudy,0,2012-12-05 06:55:00
2:15 AM,53.6,51.8,94,29.86,4.0,SSE,5.8,-,0.02,,Overcast,160,2012-12-05 07:15:00
2:35 AM,53.6,51.8,94,29.85,5.0,Calm,Calm,-,0.02,,Overcast,0,2012-12-05 07:35:00
2:55 AM,53.6,51.8,94,29.84,4.0,Calm,Calm,-,0.02,,Overcast,0,2012-12-05 07:55:00
4:15 AM,53.6,50.0,88,29.87,9.0,West,8.1,-,N/A,,Overcast,280,2012-12-05 09:15:00
4:35 AM,53.6,48.2,82,29.86,10.0,North,4.6,-,N/A,,Mostly Cloudy,10,2012-12-05 09:35:00
4:55 AM,51.8,46.4,82,29.87,10.0,North,4.6,-,N/A,,Overcast,350,2012-12-05 09:55:00
5:15 AM,51.8,46.4,82,29.88,10.0,NW,9.2,-,N/A,,Overcast,310,2012-12-05 10:15:00
5:35 AM,51.8,42.8,71,29.88,10.0,West,4.6,-,N/A,,Overcast,280,2012-12-05 10:35:00
5:55 AM,50.0,44.6,82,29.89,10.0,West,3.5,-,0.01,,Overcast,280,2012-12-05 10:55:00
6:15 AM,50.0,42.8,76,29.90,10.0,WNW,5.8,-,N/A,,Overcast,300,2012-12-05 11:15:00
6:35 AM,50.0,41.0,71,29.90,10.0,West,4.6,-,N/A,,Overcast,280,2012-12-05 11:35:00
6:55 AM,48.2,41.0,76,29.91,10.0,WNW,8.1,-,N/A,,Overcast,300,2012-12-05 11:55:00
7:15 AM,48.2,41.0,76,29.91,10.0,WSW,4.6,-,N/A,,Overcast,250,2012-12-05 12:15:00
7:35 AM,48.2,39.2,71,29.92,10.0,WSW,5.8,-,N/A,,Mostly Cloudy,250,2012-12-05 12:35:00
9:55 AM,48.2,33.8,58,29.94,10.0,West,5.8,-,N/A,,Mostly Cloudy,260,2012-12-05 14:55:00
10:15 AM,48.2,33.8,58,29.94,10.0,WNW,11.5,17.3,N/A,,Overcast,300,2012-12-05 15:15:00
10:35 AM,48.2,33.8,58,29.94,10.0,WNW,13.8,17.3,N/A,,Overcast,300,2012-12-05 15:35:00
10:55 AM,48.2,32.0,54,29.95,10.0,West,8.1,27.6,N/A,,Overcast,260,2012-12-05 15:55:00
11:15 AM,48.2,33.8,58,29.95,10.0,West,5.8,-,N/A,,Overcast,270,2012-12-05 16:15:00
11:35 AM,48.2,32.0,54,29.93,10.0,West,10.4,-,N/A,,Overcast,280,2012-12-05 16:35:00
11:55 AM,48.2,30.2,50,29.93,10.0,West,8.1,-,N/A,,Overcast,280,2012-12-05 16:55:00
12:15 PM,48.2,30.2,50,29.93,10.0,WNW,11.5,18.4,N/A,,Mostly Cloudy,290,2012-12-05 17:15:00
12:35 PM,48.2,30.2,50,29.93,10.0,West,9.2,20.7,N/A,,Mostly Cloudy,280,2012-12-05 17:35:00
12:55 PM,48.2,30.2,50,29.94,10.0,West,9.2,-,N/A,,Overcast,280,2012-12-05 17:55:00
1:15 PM,46.4,28.4,50,29.93,10.0,NW,8.1,20.7,N/A,,Mostly Cloudy,310,2012-12-05 18:15:00
1:35 PM,46.4,26.6,46,29.93,10.0,NW,3.5,24.2,N/A,,Partly Cloudy,320,2012-12-05 18:35:00
3:35 PM,41.0,24.8,53,30.00,10.0,NW,13.8,21.9,N/A,,Overcast,320,2012-12-05 20:35:00
5:35 PM,37.4,19.4,48,30.05,10.0,NW,10.4,18.4,N/A,,Overcast,310,2012-12-05 22:35:00
5:55 PM,37.4,19.4,48,30.06,10.0,NW,5.8,16.1,N/A,,Overcast,320,2012-12-05 22:55:00
6:35 PM,37.4,17.6,45,30.07,10.0,NW,13.8,24.2,N/A,,Overcast,310,2012-12-05 23:35:00
6:55 PM,35.6,17.6,48,30.08,10.0,NW,9.2,17.3,N/A,,Overcast,320,2012-12-05 23:55:00
7:15 PM,35.6,19.4,52,30.09,10.0,North,13.8,17.3,N/A,,Overcast,360,2012-12-06 00:15:00
7:35 PM,35.6,19.4,52,30.10,10.0,NNW,10.4,17.3,N/A,,Overcast,340,2012-12-06 00:35:00
7:55 PM,33.8,19.4,56,30.10,10.0,NNW,13.8,19.6,N/A,,Overcast,340,2012-12-06 00:55:00
8:15 PM,33.8,17.6,52,30.11,10.0,NNW,15.0,23.0,N/A,,Overcast,340,2012-12-06 01:15:00
9:15 PM,33.8,15.8,48,30.13,10.0,North,18.4,27.6,N/A,,Overcast,350,2012-12-06 02:15:00
9:35 PM,32.0,14.0,48,30.14,10.0,NNW,15.0,27.6,N/A,,Overcast,340,2012-12-06 02:35:00
9:55 PM,32.0,14.0,48,30.14,10.0,NNW,12.7,21.9,N/A,,Overcast,330,2012-12-06 02:55:00
10:15 PM,32.0,14.0,48,30.15,10.0,NNW,19.6,28.8,N/A,,Overcast,340,2012-12-06 03:15:00
10:35 PM,30.2,14.0,51,30.15,10.0,North,10.4,20.7,N/A,,Mostly Cloudy,350,2012-12-06 03:35:00
11:15 PM,30.2,10.4,44,30.17,10.0,NNW,13.8,25.3,N/A,,Partly Cloudy,340,2012-12-06 04:15:00
11:35 PM,30.2,12.2,47,30.17,10.0,NNW,10.4,16.1,N/A,,Partly Cloudy,340,2012-12-06 04:35:00